Simultaneous Nadir Overpasses (SNOs) Predictions

Prediction of SNOs between NOAA-21 and NOAA-19 Satellite Orbit:

Table of predicted SNOs for the next 14.0 days since TLE Epoch: 9/14/2024
Index Date (NOAA-21) Time (NOAA-21) Lat,Lon (NOAA-21) SZA (NOAA-21 ) Date (NOAA-19) Time (NOAA-19) Lat,Lon (NOAA-19) SZA (NOAA-19 ) Distance(km) Time Diff (sec)
1 09/17/2024 21:40:31 -72.23, 27.73 109.58 09/17/2024 21:39:21 -72.23, 26.08 109.50 55.88 70
2 09/17/2024 22:31:22 72.47,-165.44 70.70 09/17/2024 22:30:09 72.45,-166.18 70.72 24.70 73
3 09/17/2024 23:22:09 -72.68, 1.44 109.07 09/17/2024 23:21:09 -72.66, 1.49 109.08 3.28 60
4 09/18/2024 00:12:55 72.67, 168.78 70.94 09/18/2024 00:12:01 72.68, 168.82 70.95 1.68 54
5 09/18/2024 01:03:39 -72.68, -23.93 109.04 09/18/2024 01:03:06 -72.68, -23.94 109.03 0.69 33
6 09/18/2024 01:54:26 72.72, 143.30 71.02 09/18/2024 01:53:58 72.71, 143.39 71.01 3.20 28
7 09/18/2024 02:45:10 -72.73, -49.40 108.96 09/18/2024 02:45:03 -72.71, -49.37 108.98 2.11 7
8 09/18/2024 03:35:56 72.72, 117.93 71.04 09/18/2024 03:35:55 72.73, 117.96 71.06 1.99 1
9 09/18/2024 04:26:40 -72.72, -74.77 108.94 09/18/2024 04:27:00 -72.74, -74.80 108.93 1.80 20
10 09/18/2024 05:17:27 72.76, 92.46 71.12 09/18/2024 05:17:52 72.76, 92.53 71.11 2.31 25
11 09/18/2024 06:08:11 -72.77,-100.24 108.86 09/18/2024 06:08:57 -72.76,-100.23 108.88 0.99 46
12 09/18/2024 06:58:57 72.76, 67.09 71.14 09/18/2024 06:59:49 72.78, 67.10 71.16 2.74 52
13 09/18/2024 07:49:41 -72.77,-125.61 108.84 09/18/2024 07:50:54 -72.79,-125.66 108.83 2.91 73
14 09/18/2024 08:40:31 72.96, 41.29 71.39 09/18/2024 08:41:44 72.91, 41.89 71.30 20.08 73



Historial Predications of SNOs between NOAA-21 and NOAA-19
